Time,TemperatureF,DewpointF,PressureIn,WindDirection,WindDirectionDegrees,WindSpeedMPH,WindSpeedGustMPH,Humidity,HourlyPrecipIn,Conditions,Clouds,dailyrainin,SoftwareType,DateUTC
2013-05-28 00:05:00,52.8,50.5,30.08,SSE,156,0.0,1.0,92,0.12,,,0.15,Wunderground v.1.13,2013-05-28 07:05:00,
2013-05-28 00:15:00,52.6,50.3,30.08,SSE,156,0.0,1.0,92,0.14,,,0.00,Wunderground v.1.13,2013-05-28 07:15:00,
2013-05-28 00:25:00,52.5,50.2,30.08,SSE,156,0.0,1.0,92,0.11,,,0.02,Wunderground v.1.13,2013-05-28 07:25:00,
2013-05-28 00:35:00,52.3,50.0,30.08,SSE,156,0.0,1.0,92,0.09,,,0.04,Wunderground v.1.13,2013-05-28 07:35:00,
2013-05-28 00:40:00,52.3,50.0,30.08,SSE,156,0.0,1.0,92,0.09,,,0.04,Wunderground v.1.13,2013-05-28 07:40:00,
2013-05-28 00:50:00,52.3,50.3,30.07,SSE,156,0.0,1.0,93,0.12,,,0.06,Wunderground v.1.13,2013-05-28 07:50:00,
2013-05-28 00:55:00,52.2,50.2,30.07,SSE,156,0.0,1.0,93,0.12,,,0.07,Wunderground v.1.13,2013-05-28 07:55:00,
2013-05-28 01:05:00,52.2,50.2,30.07,SSE,155,0.0,0.0,93,0.04,,,0.07,Wunderground v.1.13,2013-05-28 08:05:00,
2013-05-28 01:15:00,52.2,50.2,30.06,SSE,155,0.0,0.0,93,0.00,,,0.08,Wunderground v.1.13,2013-05-28 08:15:00,
2013-05-28 01:20:00,52.0,50.0,30.07,SSE,150,0.0,0.0,93,0.00,,,0.08,Wunderground v.1.13,2013-05-28 08:20:00,
2013-05-28 01:30:00,52.0,50.0,30.07,SSE,158,0.0,0.0,93,0.00,,,0.08,Wunderground v.1.13,2013-05-28 08:30:00,
2013-05-28 01:40:00,51.9,49.9,30.07,SSE,158,0.0,0.0,93,0.00,,,0.09,Wunderground v.1.13,2013-05-28 08:40:00,
2013-05-28 01:45:00,51.9,49.9,30.06,SSE,158,0.0,0.0,93,0.05,,,0.10,Wunderground v.1.13,2013-05-28 08:45:00,
2013-05-28 01:55:00,51.9,50.2,30.05,SSE,158,0.0,2.0,94,0.10,,,0.11,Wunderground v.1.13,2013-05-28 08:55:00,
2013-05-28 02:00:00,51.9,50.2,30.05,SSE,158,0.0,2.0,94,0.06,,,0.11,Wunderground v.1.13,2013-05-28 09:00:00,
2013-05-28 02:05:00,51.9,50.2,30.05,SSE,160,0.0,2.0,94,0.04,,,0.11,Wunderground v.1.13,2013-05-28 09:05:00,
2013-05-28 02:15:00,51.7,50.0,30.06,SE,142,0.0,2.0,94,0.00,,,0.12,Wunderground v.1.13,2013-05-28 09:15:00,
2013-05-28 02:25:00,51.7,50.0,30.06,SE,142,0.0,2.0,94,0.00,,,0.12,Wunderground v.1.13,2013-05-28 09:25:00,
2013-05-28 02:35:00,51.7,50.0,30.06,SSE,149,0.0,2.0,94,0.00,,,0.12,Wunderground v.1.13,2013-05-28 09:35:00,
2013-05-28 02:45:00,51.7,50.0,30.06,SSE,149,0.0,2.0,94,0.00,,,0.12,Wunderground v.1.13,2013-05-28 09:45:00,
2013-05-28 02:55:00,51.7,50.0,30.06,SE,140,0.0,2.0,94,0.00,,,0.13,Wunderground v.1.13,2013-05-28 09:55:00,
2013-05-28 03:00:00,51.7,50.0,30.06,SE,141,0.0,2.0,94,0.00,,,0.13,Wunderground v.1.13,2013-05-28 10:00:00,
2013-05-28 03:10:00,51.7,50.0,30.05,SE,134,0.0,2.0,94,0.00,,,0.13,Wunderground v.1.13,2013-05-28 10:10:00,
2013-05-28 03:15:00,51.7,50.0,30.05,SE,134,0.0,2.0,94,0.00,,,0.13,Wunderground v.1.13,2013-05-28 10:15:00,
2013-05-28 03:20:00,51.7,50.0,30.05,SSE,159,0.0,2.0,94,0.00,,,0.13,Wunderground v.1.13,2013-05-28 10:20:00,
2013-05-28 03:30:00,51.7,50.0,30.05,SE,132,0.0,2.0,94,0.00,,,0.13,Wunderground v.1.13,2013-05-28 10:30:00,
2013-05-28 03:40:00,51.7,50.3,30.05,SE,132,0.0,2.0,95,0.00,,,0.13,Wunderground v.1.13,2013-05-28 10:40:00,
2013-05-28 03:45:00,51.6,50.2,30.05,SE,132,0.0,2.0,95,0.00,,,0.13,Wunderground v.1.13,2013-05-28 10:45:00,
2013-05-28 03:55:00,51.6,50.2,30.05,SE,131,0.0,2.0,95,0.00,,,0.13,Wunderground v.1.13,2013-05-28 10:55:00,
2013-05-28 04:00:00,51.6,50.2,30.05,SE,131,0.0,2.0,95,0.00,,,0.13,Wunderground v.1.13,2013-05-28 11:00:00,
2013-05-28 04:10:00,51.6,50.2,30.05,SE,137,0.0,2.0,95,0.00,,,0.13,Wunderground v.1.13,2013-05-28 11:10:00,
2013-05-28 04:20:00,51.6,50.2,30.05,SE,139,1.0,1.0,95,0.00,,,0.13,Wunderground v.1.13,2013-05-28 11:20:00,
2013-05-28 04:25:00,51.6,50.2,30.05,SE,138,0.0,2.0,95,0.00,,,0.13,Wunderground v.1.13,2013-05-28 11:25:00,
2013-05-28 04:35:00,51.6,50.2,30.05,SSE,163,1.0,3.0,95,0.00,,,0.13,Wunderground v.1.13,2013-05-28 11:35:00,
2013-05-28 04:45:00,51.6,50.2,30.05,ESE,120,0.0,2.0,95,0.00,,,0.13,Wunderground v.1.13,2013-05-28 11:45:00,
2013-05-28 04:50:00,51.6,50.2,30.05,SE,126,0.0,2.0,95,0.00,,,0.13,Wunderground v.1.13,2013-05-28 11:50:00,
2013-05-28 05:00:00,51.6,50.2,30.05,SE,126,0.0,2.0,95,0.00,,,0.13,Wunderground v.1.13,2013-05-28 12:00:00,
2013-05-28 05:10:00,51.6,50.2,30.05,SE,141,0.0,2.0,95,0.00,,,0.13,Wunderground v.1.13,2013-05-28 12:10:00,
2013-05-28 05:15:00,51.6,50.2,30.05,SE,141,0.0,2.0,95,0.00,,,0.13,Wunderground v.1.13,2013-05-28 12:15:00,
2013-05-28 05:25:00,51.6,50.2,30.05,SE,128,0.0,2.0,95,0.00,,,0.13,Wunderground v.1.13,2013-05-28 12:25:00,
2013-05-28 05:30:00,51.6,50.2,30.05,SE,128,0.0,2.0,95,0.00,,,0.13,Wunderground v.1.13,2013-05-28 12:30:00,
2013-05-28 05:40:00,51.6,50.2,30.05,SE,146,0.0,2.0,95,0.00,,,0.13,Wunderground v.1.13,2013-05-28 12:40:00,
2013-05-28 05:50:00,51.6,50.2,30.04,SE,134,0.0,2.0,95,0.00,,,0.13,Wunderground v.1.13,2013-05-28 12:50:00,
2013-05-28 05:55:00,51.6,50.2,30.04,SE,134,0.0,2.0,95,0.00,,,0.13,Wunderground v.1.13,2013-05-28 12:55:00,
2013-05-28 06:05:00,51.6,50.2,30.04,SE,124,0.0,2.0,95,0.00,,,0.13,Wunderground v.1.13,2013-05-28 13:05:00,
2013-05-28 06:10:00,51.6,50.2,30.04,ESE,115,0.0,2.0,95,0.00,,,0.13,Wunderground v.1.13,2013-05-28 13:10:00,
2013-05-28 06:20:00,51.6,50.2,30.04,SE,132,1.0,1.0,95,0.00,,,0.13,Wunderground v.1.13,2013-05-28 13:20:00,
2013-05-28 06:30:00,51.6,50.5,30.04,ESE,122,1.0,2.0,96,0.00,,,0.13,Wunderground v.1.13,2013-05-28 13:30:00,
2013-05-28 06:35:00,51.6,50.5,30.04,ESE,122,1.0,1.0,96,0.00,,,0.13,Wunderground v.1.13,2013-05-28 13:35:00,
2013-05-28 06:45:00,51.7,50.6,30.05,SE,145,0.0,2.0,96,0.00,,,0.13,Wunderground v.1.13,2013-05-28 13:45:00,
2013-05-28 06:55:00,51.9,50.8,30.05,SE,142,0.0,2.0,96,0.00,,,0.13,Wunderground v.1.13,2013-05-28 13:55:00,
2013-05-28 07:05:00,52.2,51.1,30.05,SSE,165,0.0,2.0,96,0.00,,,0.13,Wunderground v.1.13,2013-05-28 14:05:00,
2013-05-28 07:15:00,52.5,51.4,30.06,SE,138,1.0,1.0,96,0.00,,,0.13,Wunderground v.1.13,2013-05-28 14:15:00,
2013-05-28 07:20:00,52.6,51.5,30.06,SE,138,0.0,2.0,96,0.00,,,0.13,Wunderground v.1.13,2013-05-28 14:20:00,
2013-05-28 07:30:00,52.9,51.8,30.05,SSE,163,0.0,2.0,96,0.00,,,0.13,Wunderground v.1.13,2013-05-28 14:30:00,
2013-05-28 07:40:00,53.2,52.1,30.06,SE,142,0.0,2.0,96,0.00,,,0.13,Wunderground v.1.13,2013-05-28 14:40:00,
2013-05-28 07:50:00,53.3,52.2,30.06,SSE,159,0.0,2.0,96,0.00,,,0.13,Wunderground v.1.13,2013-05-28 14:50:00,
2013-05-28 07:55:00,53.3,52.2,30.06,SSE,159,0.0,2.0,96,0.00,,,0.13,Wunderground v.1.13,2013-05-28 14:55:00,
2013-05-28 08:05:00,53.5,52.4,30.06,SSE,159,0.0,2.0,96,0.00,,,0.13,Wunderground v.1.13,2013-05-28 15:05:00,
2013-05-28 08:14:00,53.8,52.7,30.06,SSE,159,0.0,2.0,96,0.00,,,0.13,Wunderground v.1.13,2013-05-28 15:14:00,
2013-05-28 08:20:00,53.8,52.7,30.06,SE,128,0.0,2.0,96,0.00,,,0.13,Wunderground v.1.13,2013-05-28 15:20:00,
2013-05-28 08:25:00,53.8,52.7,30.06,SE,128,0.0,2.0,96,0.00,,,0.13,Wunderground v.1.13,2013-05-28 15:25:00,
2013-05-28 08:35:00,53.9,52.8,30.06,SE,128,0.0,2.0,96,0.00,,,0.13,Wunderground v.1.13,2013-05-28 15:35:00,
2013-05-28 08:40:00,54.1,53.0,30.06,SE,128,0.0,2.0,96,0.00,,,0.13,Wunderground v.1.13,2013-05-28 15:40:00,
2013-05-28 08:50:00,54.2,53.1,30.06,SE,128,0.0,2.0,96,0.00,,,0.13,Wunderground v.1.13,2013-05-28 15:50:00,
2013-05-28 08:55:00,54.4,53.3,30.06,SE,128,0.0,2.0,96,0.00,,,0.13,Wunderground v.1.13,2013-05-28 15:55:00,
2013-05-28 09:05:00,54.7,53.6,30.07,SE,128,0.0,2.0,96,0.00,,,0.13,Wunderground v.1.13,2013-05-28 16:05:00,
2013-05-28 09:10:00,55.0,53.9,30.07,SE,128,0.0,2.0,96,0.00,,,0.13,Wunderground v.1.13,2013-05-28 16:10:00,
2013-05-28 09:20:00,55.3,54.2,30.08,NW,316,0.0,2.0,96,0.00,,,0.13,Wunderground v.1.13,2013-05-28 16:20:00,
2013-05-28 09:30:00,55.1,54.0,30.08,NNE,26,0.0,2.0,96,0.00,,,0.13,Wunderground v.1.13,2013-05-28 16:30:00,
2013-05-28 09:40:00,55.1,54.0,30.07,SSE,167,0.0,2.0,96,0.00,,,0.13,Wunderground v.1.13,2013-05-28 16:40:00,
2013-05-28 09:50:00,56.2,55.1,30.06,SSE,167,0.0,2.0,96,0.00,,,0.13,Wunderground v.1.13,2013-05-28 16:50:00,
2013-05-28 10:00:00,56.9,55.8,30.06,SSE,165,0.0,2.0,96,0.00,,,0.13,Wunderground v.1.13,2013-05-28 17:00:00,
2013-05-28 10:10:00,57.5,56.1,30.06,WSW,249,0.0,2.0,95,0.00,,,0.13,Wunderground v.1.13,2013-05-28 17:10:00,
2013-05-28 10:15:00,58.1,56.4,30.06,South,182,0.0,2.0,94,0.00,,,0.13,Wunderground v.1.13,2013-05-28 17:15:00,
2013-05-28 10:25:00,59.8,57.2,30.06,SE,133,1.0,1.0,91,0.00,,,0.13,Wunderground v.1.13,2013-05-28 17:25:00,
2013-05-28 10:34:00,60.2,55.7,30.06,SSE,156,0.0,2.0,85,0.00,,,0.13,Wunderground v.1.13,2013-05-28 17:34:00,
2013-05-28 10:39:00,60.7,55.8,30.06,SSE,156,0.0,2.0,84,0.00,,,0.13,Wunderground v.1.13,2013-05-28 17:39:00,
2013-05-28 10:45:00,60.9,54.7,30.06,WSW,248,0.0,2.0,80,0.00,,,0.13,Wunderground v.1.13,2013-05-28 17:45:00,
2013-05-28 10:50:00,61.3,55.1,30.06,South,170,0.0,2.0,80,0.00,,,0.13,Wunderground v.1.13,2013-05-28 17:50:00,
2013-05-28 11:00:00,62.4,55.4,30.06,South,181,0.0,2.0,78,0.00,,,0.13,Wunderground v.1.13,2013-05-28 18:00:00,
2013-05-28 11:05:00,63.1,55.8,30.06,West,280,0.0,2.0,77,0.00,,,0.13,Wunderground v.1.13,2013-05-28 18:05:00,
2013-05-28 11:15:00,63.7,55.3,30.06,WSW,244,0.0,2.0,74,0.00,,,0.13,Wunderground v.1.13,2013-05-28 18:15:00,
2013-05-28 11:20:00,63.5,55.1,30.06,SSW,200,0.0,2.0,74,0.00,,,0.13,Wunderground v.1.13,2013-05-28 18:20:00,
2013-05-28 11:30:00,63.1,53.5,30.07,WSW,257,0.0,2.0,71,0.00,,,0.13,Wunderground v.1.13,2013-05-28 18:30:00,
2013-05-28 11:39:00,63.7,55.3,30.07,WNW,286,0.0,2.0,74,0.00,,,0.13,Wunderground v.1.13,2013-05-28 18:39:00,
2013-05-28 11:45:00,63.5,54.3,30.07,SSW,201,0.0,2.0,72,0.00,,,0.13,Wunderground v.1.13,2013-05-28 18:45:00,
2013-05-28 11:50:00,63.5,53.9,30.07,West,267,0.0,2.0,71,0.00,,,0.13,Wunderground v.1.13,2013-05-28 18:50:00,
2013-05-28 12:00:00,64.0,54.4,30.07,WNW,286,1.0,4.0,71,0.00,,,0.13,Wunderground v.1.13,2013-05-28 19:00:00,
2013-05-28 12:05:00,64.5,54.9,30.07,West,269,1.0,4.0,71,0.00,,,0.13,Wunderground v.1.13,2013-05-28 19:05:00,
2013-05-28 12:15:00,65.5,55.1,30.07,SW,221,1.0,1.0,69,0.00,,,0.13,Wunderground v.1.13,2013-05-28 19:15:00,
2013-05-28 12:25:00,66.8,54.7,30.06,SSW,207,0.0,2.0,65,0.00,,,0.13,Wunderground v.1.13,2013-05-28 19:25:00,
2013-05-28 12:30:00,67.4,54.4,30.06,WSW,238,0.0,2.0,63,0.00,,,0.13,Wunderground v.1.13,2013-05-28 19:30:00,
2013-05-28 12:40:00,68.1,54.6,30.06,SW,219,0.0,2.0,62,0.00,,,0.13,Wunderground v.1.13,2013-05-28 19:40:00,
2013-05-28 12:50:00,69.9,57.2,30.05,SE,144,0.0,2.0,64,0.00,,,0.13,Wunderground v.1.13,2013-05-28 19:50:00,
2013-05-28 12:55:00,70.8,56.7,30.05,SW,236,1.0,1.0,61,0.00,,,0.13,Wunderground v.1.13,2013-05-28 19:55:00,
2013-05-28 13:05:00,70.6,52.1,30.05,West,278,1.0,1.0,52,0.00,,,0.13,Wunderground v.1.13,2013-05-28 20:05:00,
2013-05-28 13:15:00,69.9,54.0,30.04,WSW,245,0.0,0.0,57,0.00,,,0.13,Wunderground v.1.13,2013-05-28 20:15:00,
2013-05-28 13:20:00,69.4,54.0,30.05,West,271,0.0,0.0,58,0.00,,,0.13,Wunderground v.1.13,2013-05-28 20:20:00,
2013-05-28 13:30:00,71.3,55.8,30.04,South,175,0.0,0.0,58,0.00,,,0.13,Wunderground v.1.13,2013-05-28 20:30:00,
2013-05-28 13:35:00,71.8,50.5,30.04,SW,221,1.0,1.0,47,0.00,,,0.13,Wunderground v.1.13,2013-05-28 20:35:00,
2013-05-28 13:45:00,72.3,54.2,30.04,West,268,0.0,0.0,53,0.00,,,0.13,Wunderground v.1.13,2013-05-28 20:45:00,
2013-05-28 13:55:00,71.8,51.6,30.04,ENE,62,0.0,6.0,49,0.00,,,0.13,Wunderground v.1.13,2013-05-28 20:55:00,
2013-05-28 14:05:00,72.3,50.4,30.04,WSW,254,2.0,6.0,46,0.00,,,0.13,Wunderground v.1.13,2013-05-28 21:05:00,
2013-05-28 14:15:00,72.3,53.7,30.04,SW,229,1.0,6.0,52,0.00,,,0.13,Wunderground v.1.13,2013-05-28 21:15:00,
2013-05-28 14:20:00,72.5,52.2,30.04,West,263,1.0,1.0,49,0.00,,,0.13,Wunderground v.1.13,2013-05-28 21:20:00,
2013-05-28 14:30:00,73.9,53.5,30.03,NNE,16,0.0,6.0,49,0.00,,,0.13,Wunderground v.1.13,2013-05-28 21:30:00,
2013-05-28 14:40:00,74.6,53.0,30.02,NW,317,1.0,1.0,47,0.00,,,0.13,Wunderground v.1.13,2013-05-28 21:40:00,
2013-05-28 14:45:00,74.0,51.9,30.02,WSW,254,1.0,6.0,46,0.00,,,0.13,Wunderground v.1.13,2013-05-28 21:45:00,
2013-05-28 14:55:00,73.0,52.7,30.03,NW,307,1.0,1.0,49,0.00,,,0.13,Wunderground v.1.13,2013-05-28 21:55:00,
2013-05-28 15:00:00,72.7,50.7,30.03,West,265,2.0,2.0,46,0.00,,,0.13,Wunderground v.1.13,2013-05-28 22:00:00,
2013-05-28 15:05:00,72.8,49.6,30.02,WSW,254,2.0,2.0,44,0.00,,,0.13,Wunderground v.1.13,2013-05-28 22:05:00,
2013-05-28 15:15:00,74.0,54.2,30.02,West,277,0.0,6.0,50,0.00,,,0.13,Wunderground v.1.13,2013-05-28 22:15:00,
2013-05-28 15:20:00,74.4,52.3,30.02,West,269,0.0,6.0,46,0.00,,,0.13,Wunderground v.1.13,2013-05-28 22:20:00,
2013-05-28 15:30:00,75.1,52.3,30.02,West,270,0.0,6.0,45,0.00,,,0.13,Wunderground v.1.13,2013-05-28 22:30:00,
2013-05-28 15:35:00,74.9,51.5,30.01,WNW,294,1.0,1.0,44,0.00,,,0.13,Wunderground v.1.13,2013-05-28 22:35:00,
2013-05-28 15:45:00,74.7,53.1,30.02,West,263,1.0,6.0,47,0.00,,,0.13,Wunderground v.1.13,2013-05-28 22:45:00,
2013-05-28 15:50:00,74.2,52.1,30.01,ENE,63,0.0,6.0,46,0.00,,,0.13,Wunderground v.1.13,2013-05-28 22:50:00,
2013-05-28 15:55:00,74.0,54.2,30.01,WSW,250,1.0,1.0,50,0.00,,,0.13,Wunderground v.1.13,2013-05-28 22:55:00,
2013-05-28 16:05:00,74.2,51.5,30.01,ENE,76,1.0,1.0,45,0.00,,,0.13,Wunderground v.1.13,2013-05-28 23:05:00,
2013-05-28 16:15:00,74.9,52.7,30.01,NW,326,1.0,6.0,46,0.00,,,0.13,Wunderground v.1.13,2013-05-28 23:15:00,
2013-05-28 16:25:00,74.2,50.3,30.00,West,259,0.0,6.0,43,0.00,,,0.13,Wunderground v.1.13,2013-05-28 23:25:00,
2013-05-28 16:35:00,73.7,51.0,30.00,West,277,1.0,6.0,45,0.00,,,0.13,Wunderground v.1.13,2013-05-28 23:35:00,
2013-05-28 16:45:00,73.7,50.4,30.00,West,271,1.0,6.0,44,0.00,,,0.13,Wunderground v.1.13,2013-05-28 23:45:00,
2013-05-28 16:50:00,73.7,49.8,30.00,West,270,1.0,1.0,43,0.00,,,0.13,Wunderground v.1.13,2013-05-28 23:50:00,
2013-05-28 17:00:00,73.3,51.8,30.00,WNW,282,1.0,6.0,47,0.00,,,0.13,Wunderground v.1.13,2013-05-29 00:00:00,
2013-05-28 17:10:00,73.0,49.8,30.00,WNW,282,1.0,1.0,44,0.00,,,0.13,Wunderground v.1.13,2013-05-29 00:10:00,
2013-05-28 17:20:00,72.8,51.4,29.99,West,265,0.0,6.0,47,0.00,,,0.13,Wunderground v.1.13,2013-05-29 00:20:00,
2013-05-28 17:30:00,72.1,49.6,29.99,WSW,250,1.0,1.0,45,0.00,,,0.13,Wunderground v.1.13,2013-05-29 00:30:00,
2013-05-28 17:40:00,71.6,50.3,29.99,West,275,0.0,6.0,47,0.00,,,0.13,Wunderground v.1.13,2013-05-29 00:40:00,
2013-05-28 17:45:00,72.0,50.7,29.98,West,266,0.0,6.0,47,0.00,,,0.13,Wunderground v.1.13,2013-05-29 00:45:00,
2013-05-28 17:55:00,72.1,51.9,29.98,North,9,1.0,1.0,49,0.00,,,0.13,Wunderground v.1.13,2013-05-29 00:55:00,
2013-05-28 18:05:00,72.3,50.9,29.98,WNW,290,1.0,1.0,47,0.00,,,0.13,Wunderground v.1.13,2013-05-29 01:05:00,
2013-05-28 18:15:00,72.5,52.2,29.98,WSW,237,0.0,6.0,49,0.00,,,0.13,Wunderground v.1.13,2013-05-29 01:15:00,
2013-05-28 18:25:00,72.5,51.1,29.98,WSW,253,0.0,6.0,47,0.00,,,0.13,Wunderground v.1.13,2013-05-29 01:25:00,
2013-05-28 18:35:00,72.1,51.3,29.98,West,269,0.0,6.0,48,0.00,,,0.13,Wunderground v.1.13,2013-05-29 01:35:00,
2013-05-28 18:40:00,71.8,51.6,29.98,West,278,0.0,6.0,49,0.00,,,0.13,Wunderground v.1.13,2013-05-29 01:40:00,
2013-05-28 18:50:00,71.3,50.6,29.98,West,273,1.0,1.0,48,0.00,,,0.13,Wunderground v.1.13,2013-05-29 01:50:00,
2013-05-28 19:00:00,70.3,51.3,29.98,WNW,290,0.0,6.0,51,0.00,,,0.13,Wunderground v.1.13,2013-05-29 02:00:00,
2013-05-28 19:05:00,69.8,51.4,29.98,West,259,0.0,6.0,52,0.00,,,0.13,Wunderground v.1.13,2013-05-29 02:05:00,
2013-05-28 19:15:00,68.8,51.5,29.98,West,280,0.0,6.0,54,0.00,,,0.13,Wunderground v.1.13,2013-05-29 02:15:00,
2013-05-28 19:20:00,68.3,51.5,29.98,West,276,0.0,6.0,55,0.00,,,0.13,Wunderground v.1.13,2013-05-29 02:20:00,
2013-05-28 19:30:00,67.4,50.7,29.99,West,275,0.0,6.0,55,0.00,,,0.13,Wunderground v.1.13,2013-05-29 02:30:00,
2013-05-28 19:35:00,66.9,50.2,30.00,West,267,0.0,6.0,55,0.00,,,0.13,Wunderground v.1.13,2013-05-29 02:35:00,
2013-05-28 19:40:00,66.4,49.7,30.00,West,281,0.0,6.0,55,0.00,,,0.13,Wunderground v.1.13,2013-05-29 02:40:00,
2013-05-28 19:50:00,65.8,50.1,30.00,WNW,299,0.0,6.0,57,0.00,,,0.13,Wunderground v.1.13,2013-05-29 02:50:00,
2013-05-28 20:00:00,64.8,50.1,30.00,West,259,0.0,6.0,59,0.00,,,0.13,Wunderground v.1.13,2013-05-29 03:00:00,
2013-05-28 20:05:00,64.7,50.0,30.00,West,259,0.0,6.0,59,0.00,,,0.13,Wunderground v.1.13,2013-05-29 03:05:00,
2013-05-28 20:15:00,64.0,49.4,30.01,West,259,0.0,6.0,59,0.00,,,0.13,Wunderground v.1.13,2013-05-29 03:15:00,
2013-05-28 20:25:00,63.5,49.4,30.00,West,259,0.0,6.0,60,0.00,,,0.13,Wunderground v.1.13,2013-05-29 03:25:00,
2013-05-28 20:35:00,63.1,49.4,30.01,West,259,0.0,6.0,61,0.00,,,0.13,Wunderground v.1.13,2013-05-29 03:35:00,
2013-05-28 20:45:00,62.7,49.1,30.01,West,275,0.0,6.0,61,0.00,,,0.13,Wunderground v.1.13,2013-05-29 03:45:00,
2013-05-28 20:50:00,62.6,49.4,30.00,West,275,0.0,6.0,62,0.00,,,0.13,Wunderground v.1.13,2013-05-29 03:50:00,
2013-05-28 21:00:00,62.4,49.2,30.01,West,275,0.0,6.0,62,0.00,,,0.13,Wunderground v.1.13,2013-05-29 04:00:00,
2013-05-28 21:05:00,62.3,49.1,30.01,West,275,0.0,6.0,62,0.00,,,0.13,Wunderground v.1.13,2013-05-29 04:05:00,
2013-05-28 21:10:00,62.3,49.1,30.01,West,275,0.0,6.0,62,0.00,,,0.13,Wunderground v.1.13,2013-05-29 04:10:00,
2013-05-28 21:15:00,62.1,48.5,30.00,West,275,0.0,6.0,61,0.00,,,0.13,Wunderground v.1.13,2013-05-29 04:15:00,
2013-05-28 21:20:00,62.1,48.0,30.00,West,275,0.0,6.0,60,0.00,,,0.13,Wunderground v.1.13,2013-05-29 04:20:00,
2013-05-28 21:25:00,62.0,47.5,30.00,West,275,0.0,6.0,59,0.00,,,0.13,Wunderground v.1.13,2013-05-29 04:25:00,
2013-05-28 21:35:00,61.8,47.3,30.00,West,275,0.0,6.0,59,0.00,,,0.13,Wunderground v.1.13,2013-05-29 04:35:00,
2013-05-28 21:45:00,61.6,47.1,30.01,West,275,0.0,6.0,59,0.00,,,0.13,Wunderground v.1.13,2013-05-29 04:45:00,
2013-05-28 21:50:00,61.6,47.1,30.00,West,275,0.0,6.0,59,0.00,,,0.13,Wunderground v.1.13,2013-05-29 04:50:00,
2013-05-28 22:00:00,61.5,47.0,30.01,West,275,0.0,6.0,59,0.00,,,0.13,Wunderground v.1.13,2013-05-29 05:00:00,
2013-05-28 22:10:00,61.3,46.8,30.01,West,275,0.0,6.0,59,0.00,,,0.13,Wunderground v.1.13,2013-05-29 05:10:00,
2013-05-28 22:15:00,61.3,46.8,30.00,ENE,68,0.0,6.0,59,0.00,,,0.13,Wunderground v.1.13,2013-05-29 05:15:00,
2013-05-28 22:24:00,61.0,47.9,29.99,East,85,2.0,6.0,62,0.00,,,0.13,Wunderground v.1.13,2013-05-29 05:24:00,
2013-05-28 22:30:00,60.9,48.2,29.98,East,92,2.0,2.0,63,0.00,,,0.13,Wunderground v.1.13,2013-05-29 05:30:00,
2013-05-28 22:35:00,60.5,48.7,29.99,East,94,2.0,2.0,65,0.00,,,0.13,Wunderground v.1.13,2013-05-29 05:35:00,
2013-05-28 22:45:00,60.1,49.5,29.99,East,94,2.0,6.0,68,0.00,,,0.13,Wunderground v.1.13,2013-05-29 05:45:00,
2013-05-28 22:50:00,59.9,49.3,29.99,East,94,2.0,6.0,68,0.00,,,0.13,Wunderground v.1.13,2013-05-29 05:50:00,
2013-05-28 22:55:00,59.6,49.0,29.99,East,94,1.0,1.0,68,0.00,,,0.13,Wunderground v.1.13,2013-05-29 05:55:00,
2013-05-28 23:05:00,59.3,49.1,29.99,East,94,2.0,6.0,69,0.00,,,0.13,Wunderground v.1.13,2013-05-29 06:05:00,
2013-05-28 23:15:00,59.0,49.2,29.98,East,94,2.0,2.0,70,0.00,,,0.13,Wunderground v.1.13,2013-05-29 06:15:00,
2013-05-28 23:20:00,59.0,49.2,29.98,East,94,1.0,1.0,70,0.00,,,0.13,Wunderground v.1.13,2013-05-29 06:20:00,
2013-05-28 23:30:00,59.0,49.6,29.98,East,94,0.0,6.0,71,0.00,,,0.13,Wunderground v.1.13,2013-05-29 06:30:00,
2013-05-28 23:35:00,58.9,49.1,29.98,East,94,0.0,6.0,70,0.00,,,0.13,Wunderground v.1.13,2013-05-29 06:35:00,
2013-05-28 23:45:00,58.9,48.7,29.98,East,94,0.0,6.0,69,0.00,,,0.13,Wunderground v.1.13,2013-05-29 06:45:00,
2013-05-28 23:50:00,58.9,49.1,29.98,East,94,0.0,6.0,70,0.00,,,0.13,Wunderground v.1.13,2013-05-29 06:50:00,